Morristown, NJ

10:05 AM EST on January 22, 2018 (GMT -0500)
Morristown Municipal

Weather History for KMMU - June, 2012

Change the Weather History Date:

Sunday, June 17, 2012

  Actual Average Record
Temperature  
Mean Temperature 63 °F -  
Max Temperature 73 °F 82 °F 96 °F (1957)
Min Temperature 53 °F 59 °F 40 °F (1954)
Degree Days  
Heating Degree Days 2    
Growing Degree Days 13 (Base 50)    
Moisture  
Dew Point 57 °F    
Average Humidity 83    
Maximum Humidity 100    
Minimum Humidity 57    
Precipitation  
Precipitation 0.00 in - - ()
Sea Level Pressure  
Sea Level Pressure 30.19 in    
Wind  
Wind Speed 1 mph (SSE)    
Max Wind Speed 12 mph    
Max Gust Speed 17 mph    
Visibility 9 miles    
Events      
Averages and records for this station are not official NWS values.
T = Trace of Precipitation, MM = Missing Value Source: NWS Daily Summary

Daily Weather History Graph

Daily Weather History Graph

Search for Another Location

Airport or City:

Trip Planner

Search our weather history database for the weather conditions in past years. The results will help you decide how hot, cold, wet, or windy it might be!

Date:

Astronomy

Jun. 17, 2012 Rise Set
Actual Time 5:25 AM EDT 8:31 PM EDT
Civil Twilight 4:52 AM EDT 9:05 PM EDT
Nautical Twilight 4:09 AM EDT 9:47 PM EDT
Astronomical Twilight 3:19 AM EDT 10:38 PM EDT
Moon 3:53 AM EDT (6/17) 6:57 PM EDT (6/17)
Length of Visible Light 16h 12m
Length of Day
15h 06m
Waning Crescent, 4% of the Moon is Illuminated
Jun 17
Waning Crescent
Jun 19
New
Jun 26
First Quarter
Jul 3
Full
Jul 10
Last Quarter

Hourly Weather History & Observations

Time (EDT) Temp. Dew Point Humidity Pressure Visibility Wind Dir Wind Speed Gust Speed Precip Events Conditions
12:15 AM 62.6 °F 59.0 °F 88% 30.24 in 10.0 mi Calm Calm - N/A   Overcast
12:35 AM 62.6 °F 59.0 °F 88% 30.24 in 10.0 mi Calm Calm - N/A   Overcast
12:55 AM 62.6 °F 57.2 °F 82% 30.24 in 10.0 mi Calm Calm - N/A   Overcast
1:15 AM 62.6 °F 57.2 °F 82% 30.24 in 10.0 mi Calm Calm - N/A   Overcast
1:35 AM 62.6 °F 57.2 °F 82% 30.23 in 10.0 mi Calm Calm - N/A   Overcast
1:55 AM 62.6 °F 57.2 °F 82% 30.23 in 10.0 mi Calm Calm - N/A   Overcast
2:15 AM 62.6 °F 57.2 °F 82% 30.23 in 10.0 mi Calm Calm - N/A   Overcast
2:35 AM 62.6 °F 57.2 °F 82% 30.23 in 10.0 mi Calm Calm - N/A   Overcast
2:55 AM 62.6 °F 57.2 °F 82% 30.23 in 10.0 mi Calm Calm - N/A   Overcast
3:15 AM 62.6 °F 59.0 °F 88% 30.22 in 10.0 mi Calm Calm - N/A   Overcast
3:35 AM 60.8 °F 59.0 °F 94% 30.22 in 10.0 mi Calm Calm - N/A   Overcast
3:55 AM 62.6 °F 59.0 °F 88% 30.22 in 10.0 mi Calm Calm - N/A   Overcast
4:15 AM 62.6 °F 59.0 °F 88% 30.22 in 10.0 mi Calm Calm - N/A   Overcast
4:35 AM 60.8 °F 59.0 °F 94% 30.22 in 10.0 mi Calm Calm - N/A   Overcast
4:55 AM 60.8 °F 60.8 °F 100% 30.23 in 10.0 mi Calm Calm - N/A   Overcast
5:15 AM 60.8 °F 59.0 °F 94% 30.22 in 10.0 mi Calm Calm - N/A   Overcast
5:35 AM 60.8 °F 59.0 °F 94% 30.22 in 10.0 mi Calm Calm - N/A   Overcast
5:55 AM 60.8 °F 59.0 °F 94% 30.22 in 10.0 mi Calm Calm - N/A   Overcast
6:15 AM 60.8 °F 60.8 °F 100% 30.22 in 10.0 mi Calm Calm - N/A   Overcast
6:35 AM 62.6 °F 59.0 °F 88% 30.22 in 10.0 mi Calm Calm - N/A   Overcast
6:45 AM 62.6 °F 57.2 °F 82% 30.22 in 10.0 mi Calm Calm - N/A   Mostly Cloudy
7:45 AM 64.4 °F 57.2 °F 77% 30.24 in 10.0 mi Calm Calm - N/A   Overcast
8:45 AM 62.6 °F 57.2 °F 82% 30.24 in 10.0 mi SSE 4.6 mph - N/A   Overcast
9:45 AM 64.4 °F 57.2 °F 77% 30.24 in 7.0 mi South 3.5 mph - N/A   Overcast
10:45 AM 64.4 °F 57.2 °F 77% 30.22 in 7.0 mi Calm Calm - N/A   Overcast
11:45 AM 66.2 °F 57.2 °F 73% 30.21 in 7.0 mi Calm Calm - N/A   Overcast
12:45 PM 68.0 °F 57.2 °F 68% 30.19 in 7.0 mi SSE 8.1 mph - N/A   Overcast
1:45 PM 69.8 °F 59.0 °F 68% 30.17 in 7.0 mi SSW 5.8 mph - N/A   Mostly Cloudy
2:45 PM 71.6 °F 59.0 °F 64% 30.15 in 7.0 mi SE 5.8 mph - N/A   Mostly Cloudy
3:45 PM 73.4 °F 57.2 °F 57% 30.13 in 7.0 mi SSE 5.8 mph - N/A   Mostly Cloudy
4:45 PM 71.6 °F 57.2 °F 60% 30.11 in 10.0 mi SSE 6.9 mph - N/A   Mostly Cloudy
5:45 PM 69.8 °F 57.2 °F 64% 30.10 in 10.0 mi SE 11.5 mph - N/A   Scattered Clouds
6:45 PM 68.0 °F 55.4 °F 64% 30.10 in 10.0 mi SE 8.1 mph 17.3 mph N/A   Partly Cloudy
7:45 PM 64.4 °F 53.6 °F 68% 30.11 in 10.0 mi SSE 9.2 mph - N/A   Partly Cloudy
8:45 PM 62.6 °F 53.6 °F 72% 30.12 in 10.0 mi SSW 3.5 mph - N/A   Partly Cloudy
9:45 PM 60.8 °F 53.6 °F 77% 30.14 in 10.0 mi Calm Calm - N/A   Partly Cloudy
10:55 PM 53.6 °F 53.6 °F 100% 30.14 in 10.0 mi Calm Calm - N/A   Clear
11:15 PM 53.6 °F 53.6 °F 100% 30.14 in 10.0 mi Calm Calm - N/A   Clear
11:35 PM 53.6 °F 53.6 °F 100% 30.14 in 7.0 mi Calm Calm - N/A   Clear
11:55 PM 53.6 °F 53.6 °F 100% 30.13 in 7.0 mi Calm Calm - N/A   Clear